星链-5148 (STARLINK-5148 )

导读

STARLINK-5148是美国太空探索技术公司(SpaceX)星链互联网卫星星座的一员,于北京时间2022年10月5日发射入轨,属于星链星座低轨组网发射批次卫星。它运行在近地轨道,为全球范围内提供高速低延迟卫星互联网接入服务,助力星链完成全球覆盖的组网目标,目前已在星链星座中正常服役多年。

基本信息
目录编号:
53978
目录名称:
STARLINK-5148
国际标识:
2022-125Q
轨道中心:
EARTH
卫星名称:
星链-5148
卫星全名:
星链-5148 (STARLINK-5148 )
卫星状态:
在轨 (已飞行1438 天)
发射日期:
2022-10-05 UTC
国别 :
美国 (US)
星等 :
--
该卫星已列入 空间交会检测服务 Space Conjunction Data Service (SCDS) ,当前飞行风险评估等级: 无高风险
轨道信息
数据来源 国际轨道数据
星历时间: 2026-09-12T16:00:02+0800
5小时前
查看轨道信息
半长轴: 6865.164km
偏心率: 0.0000986
轨道倾角: 53.160°
近地点辐角 61.220°
升交点赤经 99.546°
平近点角 338.120°
近地点: 486.35km
远地点: 487.704km
周期: 94.349分钟
每日圈数: 15.262528
详细信息
固有亮度:
5
最大亮度:
2.5
卫星平台:
Starlink v1.5
覆盖范围:
全球
运营商:
太空探索技术公司
运营商所在国:
美国
制造商(研发单位):
太空探索技术公司
制造商所在国:
美国
使用方式:
暂无
卫星简介
星链(Starlink)计划是由太空探索技术公司(SpaceX)提出的一个巨型低轨卫星互联网星座项目,计划在2019年至2024年间在太空搭建由约1.2万颗卫星组成的“星链”网络,其中1584颗将部署在地球上空550千米处的近地轨道,并从2020年开始工作。该卫星仍在工作。
2D轨道图
3D轨道图
轨道高度分析图
轨道倾角分析图
轨道综合分析图
查看轨道综合分析图
交会数据列表
事件ID 空间交会对象 最接近时刻(TCA) 交会距离 交会风险概率(CRP) 交会风险指数(CRI) 操作
CDM_260905-231005-397806-670221
2026-09-05T
23:10:24+0000
0.610 km
远距离
1.248668E-4 高风险 0.77
CDM_260914-062705-267405-397821
2026-09-14T
06:27:14+0000
1.867 km
极远距离
2.518627E-6 低风险 0.43
CDM_260913-201804-723105-397821
2026-09-13T
20:18:02+0000
2.446 km
极远距离
1.721111E-6 低风险 0.4
CDM_260914-040505-267405-397821
2026-09-14T
04:05:47+0000
2.927 km
极远距离
1.04743E-6 低风险 0.35
CDM_260913-082605-397806-323521
OTP-2 (63235)
2026-09-13T
08:26:55+0000
2.985 km
极远距离
9.716333E-7 极低风险 0.35
与全量物体交会距离演化趋势
与全量物体交会风险概率演化趋势